Location: G?bice
(51.9739°N, 19.2698°E)
Time: 10:48:11
(UTC+00:00)

Daily predictions for brighter satellites

Satellite Brightness Start Highest point End
(mag) Time Altitude Azimuth Time Altitude Azimuth Time Altitude Azimuth
Cosmos 371 Rocket 4.3 19:03:40 10° NW 19:08:15 46° WSW 19:12:51 10° S
Cosmos 2322 Rocket 2.3 19:04:08 10° NNW 19:09:48 70° ENE 19:15:24 10° SE
Cosmos 2056 Rocket 4.1 19:05:09 10° NNW 19:10:20 46° NE 19:15:24 10° SE
USA 245 4.0 19:06:11 10° SE 19:10:32 43° ENE 19:14:04 10° N
Meteor 1-26 Rocket 4.4 19:08:32 10° N 19:14:31 72° ENE 19:20:16 10° SSE
Gblst 52 Del rocket 4.4 19:10:00 10° W 19:15:48 87° S 19:22:23 10° E
Meteor 2-15 Rocket 4.5 19:11:33 10° N 19:17:41 81° E 19:23:46 10° SSE
USA 276 4.0 19:15:34 10° W 19:17:59 20° SSW 19:20:25 10° SSE
USA 234 3.9 19:13:44 10° ENE 19:20:09 58° N 19:26:33 10° WNW
SAR-Lupe-4 4.4 19:19:59 10° N 19:23:31 54° WNW 19:27:01 10° SSW
CARTOSAT-1 4.0 19:22:47 10° SE 19:26:57 50° ENE 19:31:09 10° N
Cosmos 2219 Rocket 3.4 19:22:06 10° NNW 19:27:07 32° NE 19:32:06 10° ESE
Spot 2 Rocket 3.8 19:23:24 10° SE 19:28:22 57° ENE 19:33:24 10° N
Cosmos 1633 4.0 19:27:02 10° SW 19:30:28 41° WNW 19:33:57 10° N
Cosmos 1371 Rocket 4.2 19:26:53 10° NNW 19:32:17 70° ENE 19:37:34 10° SSE
BREEZE-M DEB (TANK) 3.9 19:28:29 10° SW 19:32:24 50° SE 19:46:04 10° ENE
Cosmos 1553 Rocket 4.2 19:29:46 10° N 19:35:44 55° ENE 19:41:43 10° SSE
Cosmos 1680 Rocket 3.7 19:31:05 10° S 19:36:09 50° ESE 19:41:13 10° NNE
Cosmos 2112 Rocket 4.4 19:31:40 10° S 19:36:39 44° ESE 19:41:38 10° NE
Resurs 01 Rocket 2.4 19:33:24 10° S 19:37:44 51° W 19:42:07 10° NNW
Cosmos 1515 Rocket 4.4 19:35:48 10° N 19:39:54 35° ENE 19:43:29 13° SE
SL-16 R/B 2.6 19:34:49 10° NW 19:40:25 62° WSW 19:46:00 10° SSE
Cosmos 1151 Rocket 3.0 19:36:05 10° N 19:40:28 73° ENE 19:44:50 10° SSE
Terra 2.5 19:40:07 12° SE 19:44:14 40° ENE 19:48:41 10° N
ATLAS 5 CENTAUR R/B 3.1 19:40:13 10° NW 19:45:05 42° NNE 19:50:49 10° ESE
CZ-2C R/B 3.7 19:43:54 10° NNE 19:48:25 65° ESE 19:52:50 10° S
Meteor 2-3 Rocket 3.8 19:42:45 10° SSW 19:48:27 86° W 19:54:15 10° NNE
SPOT 3 Rocket 4.2 19:43:21 10° S 19:48:29 57° W 19:53:38 10° NNW
NOSS 2-1 (E) 3.8 19:46:43 10° S 19:49:30 26° ESE 19:52:24 10° ENE
Cosmos 2237 4.3 19:44:45 10° NNW 19:50:30 82° WSW 19:55:45 12° SSE
Cosmos 1271 Rocket 3.8 19:49:01 10° NNW 19:52:51 45° W 19:56:40 10° S
Cosmos 1328 Rocket 3.6 19:49:35 10° N 19:54:04 77° E 19:58:06 12° SSE
NOSS 3-1 (C) 4.1 19:47:06 10° NW 19:54:17 78° NE 20:02:01 13° SE
COSMOS 2428 3.6 19:49:10 10° NNW 19:54:32 39° NE 19:59:31 12° ESE
Gbstr 26 Del rocket 4.5 19:52:48 10° W 19:55:36 20° SW 19:58:12 11° S
Cosmos 1766 Rocket 3.5 19:51:41 10° S 19:56:03 66° E 20:00:23 10° NNE
SPOT 5 2.6 19:57:34 14° SSE 20:01:14 72° ENE 20:05:43 10° NNW
CZ-3B R/B 3.6 19:44:58 10° WNW 20:02:11 79° NNE 20:06:21 10° E
JB-3 4.4 19:58:06 10° NNE 20:02:16 82° ESE 20:06:20 10° SSW
ARIANE 5 R/B 2.6 19:58:58 13° SSE 20:02:59 89° E 20:07:27 10° NNW
Cosmos 292 Rocket 3.8 20:00:14 10° NNW 20:05:01 73° ENE 20:08:41 17° SSE
Meteor 2-6 Rocket 4.1 19:59:39 10° NNW 20:05:06 82° ENE 20:09:48 14° SSE
Cosmos 1862 3.5 20:04:11 14° S 20:07:28 52° E 20:11:20 10° NNE
Cosmos 1782 3.7 20:03:36 10° NNW 20:07:28 46° W 20:11:17 10° SSW
S3M 4.2 20:01:29 10° N 20:07:52 65° ENE 20:13:09 15° SSE
USA 229 DEB 4.1 20:03:02 10° NW 20:10:11 68° NE 20:17:02 13° ESE
USA 229 4.1 20:03:08 10° NW 20:10:17 67° NE 20:17:09 13° ESE
Cosmos 1624 Rocket 4.2 20:06:32 10° NNW 20:11:44 68° WSW 20:16:05 15° S
Cosmos 1655 Rocket 4.4 20:09:18 14° SSE 20:14:36 49° E 20:20:43 10° NNE
Cosmos 2082 Rocket 4.3 20:10:24 10° WSW 20:15:24 31° NW 20:20:27 10° NNE
Meteor 2-21 4.4 20:11:01 10° S 20:17:11 75° E 20:23:19 10° NNE
Cosmos 2360 Rocket 2.4 20:13:56 10° NW 20:19:31 65° WSW 20:23:55 17° SSE
Cosmos 1420 Rocket 4.1 20:14:53 10° NNW 20:20:15 83° WSW 20:24:12 18° SSE
CZ-4C R/B 4.2 20:15:50 10° NW 20:21:24 32° N 20:27:58 10° ENE
ATLAS 2AS CENTAUR R/B 4.3 20:17:28 10° W 20:24:55 44° NNW 20:32:03 10° NE
Cosmos 1174 3.4 20:22:09 10° NW 20:25:06 53° SW 20:26:29 27° S
USA 267 4.4 20:21:28 10° E 20:26:03 20° SE 20:27:32 18° SE
COSMOS 2487 3.7 20:26:57 22° ESE 20:27:20 23° ESE 20:30:04 10° NE
Cosmos 2084 Rocket 4.5 20:25:22 10° NW 20:29:16 39° NNE 20:32:48 13° E
NOSS 3-1 (A) 4.1 20:23:31 10° NW 20:30:43 80° NE 20:37:35 17° SE
NOSS 2-1 (C) 2.7 20:30:21 10° SW 20:33:36 77° SE 20:37:05 10° NE
Cosmos 1500 Rocket 3.8 20:34:48 23° SSE 20:37:18 51° E 20:41:38 10° NNE
Cosmos 1812 3.8 20:33:53 10° NNW 20:37:32 41° W 20:40:31 14° SSW
Cosmos 2084 3.4 20:35:14 10° SW 20:39:20 84° NW 20:43:34 10° NE
Meteor 1-27 Rocket 3.8 20:33:51 10° N 20:39:32 76° ENE 20:43:22 22° SSE
COSMOS 2455 3.2 20:34:50 14° S 20:39:38 43° ESE 20:45:17 10° NE
Cosmos 1833 4.2 20:34:44 10° SSW 20:40:28 70° ESE 20:46:14 10° NE
Cosmos 2333 Rocket 2.2 20:35:03 10° NNW 20:40:44 85° WSW 20:44:24 23° SSE
NOSS 2-1 (D) 2.8 20:38:06 10° SW 20:41:21 90° NW 20:44:53 10° NE
Cosmos 1452 Rocket 3.5 20:37:26 10° NNW 20:42:44 83° ENE 20:45:57 24° SSE
ERS-1 Rocket 3.6 20:40:25 15° S 20:44:26 51° W 20:49:21 10° NNW
Lacrosse 5 4.0 20:46:41 10° E 20:46:41 10° E 20:46:53 10° E
Meteor 2-16 Rocket 4.4 20:42:27 15° S 20:47:35 81° E 20:53:43 10° NNE
Cosmos 2322 3.7 20:42:11 10° NNW 20:47:56 80° WSW 20:51:30 24° SSE
SL-27 R/B 2.9 20:44:49 10° SSW 20:48:24 65° WNW 20:52:00 10° NNE
H-2A R/B 3.7 20:44:29 10° NNE 20:48:37 54° E 20:50:38 28° SSE
COBE Rocket 4.4 20:47:22 23° SE 20:49:50 43° ENE 20:54:20 10° N
Cosmos 2297 Rocket 4.0 20:50:20 13° ESE 20:51:14 13° E 20:53:42 10° ENE
Cosmos 2322 Rocket 3.9 20:48:55 10° NW 20:53:21 24° WSW 20:57:46 10° SSW
Cosmos 2237 Rocket 3.1 20:48:12 10° NNW 20:53:34 41° NE 20:57:41 16° ESE
Cosmos 1408 Rocket 3.9 20:50:55 14° SSW 20:54:35 65° WNW 20:58:54 10° N
Cosmos 1743 Rocket 3.5 20:55:46 25° S 20:58:21 79° E 21:02:48 10° NNE
Sich 1 3.7 20:57:14 29° SE 20:58:43 38° E 21:02:45 10° NNE
USA 234 3.4 20:56:20 10° ESE 21:02:52 74° NNE 21:09:25 10° WNW
Cosmos 2227 Rocket 4.1 21:02:43 12° ESE 21:03:32 12° E 21:05:38 10° ENE
Cosmos 1110 Rocket 4.1 20:59:45 10° NNW 21:05:06 71° ENE 21:07:57 28° SE
Cosmos 1331 Rocket 4.1 21:02:23 10° NNW 21:07:39 67° ENE 21:10:22 28° SE
Cosmos 1633 Rocket 4.3 21:07:00 23° ESE 21:08:03 25° E 21:11:37 10° NNE
IRIDIUM 104 4.3 21:03:55 10° N 21:09:11 87° E 21:12:02 28° S
Cosmos 2219 Rocket 2.4 21:05:56 10° NW 21:11:29 63° WSW 21:14:26 28° S
Cosmos 1666 Rocket 4.5 21:13:38 29° ESE 21:14:51 34° E 21:18:54 10° NNE
IRIDIUM 114 4.3 21:13:03 10° N 21:18:19 80° W 21:21:10 28° S
Terra 3.2 21:19:00 16° SSW 21:22:04 32° W 21:26:21 10° NNW
Cosmos 2285 Rocket 4.2 21:16:33 10° NNW 21:22:48 65° WSW 21:26:17 27° S
SL-16 R/B 3.7 21:17:52 10° NNW 21:22:51 30° NE 21:27:47 10° ESE
Cosmos 2266 Rocket 4.3 21:19:57 16° SSW 21:25:01 66° WNW 21:31:18 10° N
Spot 4 3.9 21:23:58 33° SSE 21:26:06 73° ENE 21:30:56 10° NNW
Meteor 1-25 Rocket 4.2 21:23:50 30° SSE 21:26:34 64° E 21:32:04 10° NNE
Cosmos 2315 Rocket 4.2 21:20:47 10° NNW 21:27:03 68° W 21:30:56 25° S
Cosmos 1515 3.6 21:25:17 10° N 21:29:05 90° ENE 21:30:04 48° S
ATLAS 5 CENTAUR R/B 2.4 21:24:39 10° NW 21:30:02 65° SW 21:33:05 31° SSE
Cosmos 468 4.4 21:29:46 27° SSW 21:32:37 77° ESE 21:37:52 10° NNE
Cosmos 2228 Rocket 3.7 21:29:02 10° NNW 21:33:18 47° W 21:35:17 28° SSW
NOSS 2-2 (C) 4.3 21:28:31 10° NW 21:33:25 73° NE 21:37:51 21° SE
Cosmos 494 Rocket 3.9 21:32:49 33° S 21:35:05 66° ESE 21:40:12 10° NNE
Cosmos 1862 Rocket 3.9 21:31:17 10° N 21:35:34 53° ENE 21:36:57 37° SE
Okean 1 3.2 21:34:21 10° N 21:38:23 83° E 21:39:27 48° SSE
COSMOS 2428 3.2 21:33:30 10° NW 21:38:58 49° WSW 21:41:31 29° SSW
Meteor 2-4 Rocket 4.2 21:34:10 10° N 21:40:02 56° ENE 21:42:55 29° SE
Cosmos 1602 3.6 21:39:19 50° S 21:40:14 78° E 21:44:06 10° NNE
Meteor 1-19 Rocket 4.1 21:38:07 10° NNW 21:43:48 87° WSW 21:46:15 35° S
Cosmos 1707 Rocket 3.5 21:40:08 10° NNW 21:44:31 77° W 21:45:57 42° S
Cosmos 1048 Rocket 4.0 21:48:39 24° SSW 21:51:48 76° WNW 21:56:57 10° NNE
Cosmos 1666 3.7 21:51:36 32° ESE 21:51:57 32° E 21:55:25 10° NNE
TSX-5 4.3 21:53:34 42° SE 21:53:59 43° ESE 21:58:35 10° NE
Cosmos 1745 Rocket 4.4 21:54:37 31° SSE 21:57:19 51° E 22:03:24 10° NNE
ALOS 2 2.5 21:59:22 46° SSE 22:00:40 88° ENE 22:05:05 10° NNW
USA 229 DEB 4.5 21:54:12 10° NW 22:01:01 43° WSW 22:04:27 28° S
USA 229 4.5 21:54:18 10° NW 22:01:08 43° WSW 22:04:33 28° S
Cosmos 2219 4.0 22:00:28 31° SE 22:01:56 36° ESE 22:07:08 10° NE
COSMOS 2487 4.0 22:00:10 19° WSW 22:02:00 31° WNW 22:05:06 10° N
Cosmos 2360 Rocket 4.5 22:00:22 10° WNW 22:02:25 12° W 22:04:29 10° WSW
Cosmos 1302 Rocket 3.9 21:58:08 10° NNW 22:03:23 86° WSW 22:05:22 39° SSE
Cosmos 1269 Rocket 4.3 22:07:17 38° SSE 22:08:47 50° ESE 22:13:53 10° NNE
Cosmos 2084 Rocket 3.8 22:04:49 10° NW 22:08:50 46° SW 22:09:17 44° SSW
USA 267 3.3 22:03:34 10° ENE 22:10:03 59° SE 22:14:47 19° SW
Nadezhda 1 Rocket 4.0 22:03:46 10° N 22:10:14 82° E 22:13:14 34° SSE
CZ-4C R/B 3.4 22:04:38 10° NW 22:11:16 57° NE 22:19:13 10° ESE
Meteor 1-14 Rocket 4.2 22:09:13 38° S 22:11:23 69° E 22:17:03 10° NNE
Cosmos 1980 3.8 22:09:52 10° NW 22:15:28 62° WSW 22:17:31 38° S
NOSS 0 Rocket 4.4 22:10:36 10° NW 22:16:31 47° WSW 22:18:54 32° SSW
Okean 1-7 3.5 22:14:12 10° N 22:18:22 50° ENE 22:19:30 39° ESE
Cosmos 1536 4.2 22:23:27 25° ESE 22:24:01 26° E 22:27:25 10° NNE
Cosmos 2333 Rocket 4.1 22:20:43 10° WNW 22:24:10 17° W 22:26:23 14° SW
COSMOS 2455 3.6 22:19:41 10° WSW 22:25:32 51° NW 22:31:26 10° NNE
Lacrosse 5 2.0 22:25:49 44° S 22:26:48 52° SE 22:31:44 10° ENE
NOSS 2-2 (D) 4.4 22:25:38 10° NW 22:30:43 59° SW 22:33:24 35° SSE
BREEZE-M R/B 2.7 22:31:56 44° SW 22:32:48 56° SSE 22:38:34 10° E
Cosmos 2297 Rocket 2.2 22:32:07 39° S 22:34:14 69° ESE 22:39:53 10° NE
Cosmos 1500 3.9 22:34:31 38° WSW 22:35:26 46° WNW 22:39:11 10° N
Thor Agena Rocket 3.9 22:32:40 10° NNE 22:37:35 48° E 22:39:00 37° SE
Cosmos 2237 Rocket 2.7 22:32:21 10° NW 22:37:45 46° WSW 22:39:29 35° SSW
Cosmos 1470 Rocket 3.6 22:43:08 47° SW 22:44:15 68° WNW 22:48:35 10° N
Cosmos 1633 Rocket 4.0 22:44:03 29° WSW 22:45:39 41° WNW 22:49:48 10° N
USA 234 3.3 22:42:59 31° SSE 22:46:05 56° SW 22:52:31 10° WNW
Cosmos 2227 Rocket 2.2 22:44:30 40° S 22:46:29 66° ESE 22:52:07 10° NE
Cosmos 1933 Rocket 3.5 22:49:28 51° SSW 22:50:35 88° WNW 22:55:04 10° N
MTI 3.8 22:48:09 10° NNE 22:50:49 68° N 22:50:49 68° N
SAR-Lupe-2 3.4 22:48:40 10° NNE 22:52:17 73° ESE 22:52:30 70° SE
Cosmos 2242 Rocket 3.5 22:48:19 10° NNW 22:52:45 77° W 22:53:45 52° S
Cosmos 2219 Rocket 4.4 22:52:37 10° WNW 22:54:18 11° W 22:55:59 10° WSW
Cosmos 1340 Rocket 2.7 22:54:24 62° SSW 22:55:00 81° WNW 22:58:58 10° N
Cosmos 1378 3.1 22:51:54 10° NNW 22:55:36 67° W 22:55:52 64° SW
Cosmos 1544 3.4 22:55:37 50° ESE 22:55:49 51° E 22:59:20 10° NNE
Cosmos 2263 Rocket 3.9 22:57:34 17° SE 22:59:24 19° E 23:03:19 10° NE
SL-16 R/B 4.0 22:55:57 10° ESE 23:01:19 32° ENE 23:06:43 10° N
Cosmos 44 3.6 22:59:24 10° NW 23:04:46 73° NE 23:07:58 23° SE
Cosmos 2181 Rocket 4.0 22:58:40 10° N 23:05:03 80° E 23:08:03 33° SSE
SL-16 R/B 2.2 23:01:49 10° NW 23:07:29 70° WSW 23:09:37 39° S
Cosmos 1461 4.1 23:07:53 30° SE 23:08:08 30° ESE 23:12:00 10° ENE
Cosmos 2251 Rocket 4.0 23:08:14 36° SSE 23:09:50 47° ESE 23:14:57 10° NE
ATLAS 5 CENTAUR R/B 4.1 23:10:41 10° WNW 23:14:05 16° WSW 23:14:35 16° WSW
Okean 3 3.4 23:10:50 10° NNW 23:15:08 76° W 23:16:01 54° SSW
Intercosmos 25 Rocket 3.9 23:24:02 44° SSW 23:25:23 76° WNW 23:31:45 10° N
Cosmos 1743 2.7 23:25:44 57° SSE 23:26:19 69° E 23:30:07 10° NNE
Cosmos 1666 4.3 23:26:25 22° W 23:27:32 25° WNW 23:30:49 10° N
Meteor 1-11 Rocket 3.7 23:25:58 37° SSW 23:28:13 77° WNW 23:33:46 10° N
Helios 1A 3.5 23:27:02 31° SE 23:28:46 55° ENE 23:32:54 10° N
Cosmos 1703 Rocket 4.5 23:24:51 10° NNW 23:28:48 34° W 23:29:38 31° WSW
Cosmos 1975 4.4 23:27:56 21° ESE 23:29:18 26° E 23:32:42 10° NNE
Cosmos 2221 Rocket 3.8 23:25:54 10° N 23:30:28 68° ENE 23:32:13 36° SSE
ARGOS Delta rocket 4.0 23:26:41 10° NNE 23:31:14 56° E 23:32:38 39° SSE
PSLV R/B 3.9 23:27:41 10° N 23:32:27 67° WNW 23:34:07 39° SW
Cosmos 1709 Rocket 4.3 23:30:39 31° SW 23:33:46 62° WNW 23:40:08 10° N
ASTEX 1 3.4 23:35:16 38° SSE 23:37:12 82° E 23:42:10 10° N
Cosmos 1943 3.6 23:33:58 10° NNW 23:39:40 64° NE 23:44:45 13° SE
Cosmos 909 Rocket 4.4 23:36:15 26° SW 23:40:29 83° NW 23:48:44 10° NE
CZ-2D R/B 3.3 23:37:43 10° NNE 23:42:37 33° E 23:45:32 20° SE
Cosmos 1733 Rocket 3.5 23:41:40 35° SSE 23:43:11 53° E 23:47:32 10° NNE
SL-8 R/B 4.1 23:43:02 41° S 23:43:18 41° SSE 23:47:48 10° E
SL-24 R/B - RUBIN 2 3.9 23:38:25 10° NW 23:43:40 79° NE 23:47:24 16° SE
Cosmos 407 Rocket 4.2 23:43:30 29° SSE 23:45:33 43° ESE 23:50:29 10° NE
Cosmos 2219 3.8 23:42:22 22° WSW 23:45:57 51° NW 23:51:35 10° NNE
USA 267 3.5 23:46:42 10° ENE 23:53:13 72° NNW 23:59:44 10° W
YAOGAN 11 4.1 23:53:53 40° S 23:55:27 74° WSW 23:59:58 10° NNW
